Vorticity
8 3 6 16 13 12 22 19 12 9 8 6 4 4 4 5 6 6 7 13 20 27 32 30 32 32 34 36 33 23 13 6 3 4 5 4 4 10 16 28 31 35 23
21 -11 15 10 12 18 7 8 10 5 6 4 6 11 16 19 22 25 27 28 28 27 29 29 23 23 30 29 34 42 46 46 39 32 23 23 23 19 20 20 16 21 38
-3 9 14 29 28 8 6 7 9 17 21 20 16 16 22 35 34 29 32 32 33 30 25 23 21 21 19 23 19 18 21 25 30 29 31 18 16 27 19 16 18 12 13
4 2 33 14 7 8 11 27 27 23 22 25 28 26 30 27 20 22 24 23 20 20 18 16 16 13 12 17 13 11 12 19 25 29 28 27 34 17 17 20 13 29 4
1 25 2 12 4 16 33 17 24 27 28 29 29 25 20 17 17 14 13 14 9 10 14 16 18 19 18 17 16 8 4 14 28 23 22 29 19 17 19 19 15 25 22
11 7 7 6 25 28 8 -1 3 4 10 19 27 27 25 24 22 22 21 23 24 24 22 21 22 23 23 18 17 12 8 8 13 26 19 18 22 12 13 19 14 24 27
9 6 10 29 22 10 6 9 9 8 7 3 0 -1 2 4 7 10 13 17 19 23 24 23 24 26 23 21 17 22 22 17 17 9 22 22 20 19 9 7 6 19 31
7 16 28 19 18 5 3 4 4 4 4 4 2 2 2 4 4 4 4 4 4 4 4 3 3 3 3 4 7 8 16 18 25 21 13 19 22 20 18 18 12 7 10
24 22 20 21 5 3 4 1 3 4 3 3 4 3 4 4 4 3 4 3 3 3 3 3 3 3 2 2 2 1 2 2 2 5 15 23 16 24 19 14 21 13 18
11 21 19 10 4 3 2 3 3 3 2 2 2 3 3 3 3 3 3 3 3 2 2 2 3 3 3 3 2 2 1 0 1 3 3 3 8 17 17 30 29 17 14
17 15 13 6 5 3 3 3 4 3 4 3 4 5 5 4 4 4 4 4 4 5 5 5 5 5 5 5 5 5 5 6 5 3 3 2 2 0 5 17 7 25 31
14 13 9 6 6 5 4 5 5 4 5 6 6 7 6 6 5 4 5 6 6 6 6 6 6 8 11 12 11 11 11 10 9 9 9 7 5 4 3 2 2 3 6
10 7 8 8 7 7 7 6 5 5 6 6 7 7 7 6 7 7 7 7 6 6 9 12 15 11 2 0 4 7 11 12 11 9 6 4 3 6 10 9 5 3 0
8 7 7 8 8 7 6 6 6 6 7 7 7 6 5 5 6 7 7 6 6 8 10 11 10 8 4 1 3 6 7 6 8 9 9 8 7 7 7 8 7 10 8
8 8 6 6 6 6 6 5 6 6 7 7 4 3 4 5 6 6 5 5 7 10 9 8 9 9 7 8 9 7 8 9 10 10 12 12 12 11 8 10 13 11 9
10 9 8 7 8 7 6 5 6 6 5 4 4 4 5 5 6 5 5 7 9 8 6 7 9 8 6 7 7 7 8 8 7 8 11 12 13 12 14 14 14 15 16
8 8 7 7 7 5 5 6 6 5 5 4 5 5 6 5 5 6 7 8 7 6 5 6 7 9 9 8 7 9 7 6 5 7 8 9 12 14 15 17 21 24 27
7 8 7 7 7 7 7 6 6 5 5 6 7 6 6 6 7 7 8 7 7 7 7 8 9 11 9 10 8 9 6 4 5 7 9 11 15 15 15 15 15 16 15
6 6 7 7 7 7 7 6 6 6 6 7 6 6 7 7 7 7 6 5 6 7 8 10 11 10 9 10 9 9 8 4 5 10 12 13 12 15 16 16 15 13 13
8 8 7 7 6 6 6 7 7 7 7 6 7 8 7 8 7 6 6 6 6 9 10 11 10 9 10 9 8 8 8 7 9 12 15 15 12 13 14 15 14 13 13
7 7 7 7 6 7 7 7 7 7 7 8 8 7 6 7 8 5 5 7 11 12 12 9 10 9 9 8 8 7 10 11 12 14 13 11 12 12 13 14 14 14 13
10 10 10 9 8 8 8 8 8 8 7 6 6 7 7 5 5 9 13 13 11 10 10 9 9 9 7 8 8 10 11 12 14 12 11 11 12 12 11 10 9 10 10
11 11 10 9 9 9 8 8 7 7 7 7 6 6 9 14 15 10 9 11 11 8 8 10 9 10 9 7 7 9 13 13 11 11 10 10 10 10 11 12 11 11 12
7 7 6 7 7 8 7 7 6 6 6 8 12 16 12 10 11 11 9 7 7 10 11 11 10 8 4 7 11 15 13 10 10 8 9 10 13 13 13 15 19 21 22
8 10 11 10 10 9 10 11 13 15 15 13 9 8 10 10 8 7 6 8 12 13 10 10 6 4 9 14 14 10 9 8 8 10 14 16 20 23 21 18 16 15 17
10 9 8 9 9 10 12 12 10 8 8 9 10 10 8 7 7 10 14 13 11 11 8 3 7 12 15 11 9 8 8 11 14 18 23 24 17 15 18 22 21 19 19
Height
5620 5618 5615 5612 5607 5603 5599 5597 5594 5592 5588 5584 5579 5575 5571 5566 5562 5557 5552 5548 5544 5540 5536 5533 5530 5528 5526 5524 5525 5527 5528 5531 5536 5535 5537 5539 5539 5542 5543 5548 5551 5555 5565
5611 5609 5606 5602 5598 5595 5592 5590 5586 5582 5577 5572 5567 5561 5556 5550 5545 5540 5535 5530 5526 5523 5519 5517 5515 5512 5510 5508 5507 5507 5507 5507 5509 5513 5515 5517 5521 5524 5523 5529 5533 5538 5546
5603 5600 5597 5594 5590 5588 5585 5582 5578 5571 5565 5560 5554 5548 5542 5537 5532 5528 5523 5518 5515 5512 5509 5507 5505 5502 5500 5498 5497 5496 5495 5494 5493 5494 5497 5500 5504 5507 5508 5513 5517 5523 5530
5595 5592 5589 5587 5585 5582 5579 5574 5569 5563 5557 5551 5545 5539 5535 5530 5525 5521 5516 5512 5509 5506 5503 5501 5498 5496 5494 5492 5491 5490 5489 5486 5483 5482 5483 5485 5488 5492 5496 5500 5504 5508 5513
5588 5584 5583 5581 5579 5576 5573 5569 5564 5558 5552 5546 5541 5535 5530 5525 5521 5518 5513 5510 5506 5503 5500 5497 5494 5492 5491 5489 5487 5486 5483 5480 5476 5473 5472 5474 5477 5481 5485 5488 5491 5495 5499
5580 5579 5578 5575 5573 5570 5569 5567 5562 5557 5551 5546 5541 5535 5529 5523 5519 5515 5512 5508 5504 5501 5498 5495 5492 5490 5488 5486 5484 5482 5479 5476 5471 5467 5465 5466 5468 5472 5474 5478 5480 5482 5487
5575 5573 5571 5569 5567 5567 5566 5564 5562 5557 5552 5547 5542 5537 5532 5527 5523 5519 5515 5511 5507 5503 5500 5497 5493 5490 5487 5484 5481 5477 5474 5471 5468 5464 5461 5460 5462 5464 5466 5468 5471 5474 5475
5569 5567 5564 5563 5564 5564 5564 5563 5560 5556 5552 5547 5543 5539 5535 5531 5528 5524 5520 5515 5511 5507 5502 5498 5495 5491 5487 5483 5479 5476 5472 5468 5465 5462 5459 5458 5458 5458 5458 5460 5462 5465 5469
5562 5560 5559 5560 5561 5562 5561 5560 5557 5554 5550 5547 5543 5539 5535 5532 5528 5524 5520 5516 5512 5508 5504 5500 5496 5493 5488 5483 5478 5474 5470 5467 5463 5461 5457 5454 5453 5452 5451 5451 5453 5456 5459
5557 5556 5556 5557 5558 5559 5559 5557 5554 5551 5548 5545 5541 5538 5534 5530 5526 5522 5519 5515 5511 5507 5503 5500 5496 5492 5488 5484 5480 5476 5472 5468 5463 5459 5456 5453 5450 5448 5447 5446 5446 5446 5446
5553 5553 5553 5555 5555 5556 5555 5553 5551 5548 5546 5542 5539 5535 5532 5528 5524 5520 5516 5512 5508 5504 5500 5496 5492 5488 5484 5480 5476 5473 5470 5466 5463 5459 5455 5452 5449 5445 5442 5440 5439 5438 5437
5550 5550 5551 5552 5552 5552 5551 5549 5547 5544 5542 5538 5535 5532 5529 5525 5521 5517 5513 5509 5505 5500 5496 5491 5487 5482 5478 5474 5470 5466 5462 5459 5455 5452 5449 5445 5442 5438 5436 5433 5431 5429 5427
5548 5548 5548 5548 5548 5547 5546 5544 5543 5540 5537 5534 5531 5527 5524 5520 5517 5513 5508 5504 5499 5494 5490 5485 5480 5477 5473 5469 5465 5460 5456 5452 5448 5444 5440 5436 5433 5430 5427 5423 5421 5418 5417
5545 5545 5545 5545 5544 5543 5542 5540 5538 5535 5533 5529 5526 5522 5519 5515 5511 5506 5502 5497 5492 5488 5483 5478 5474 5470 5466 5462 5457 5452 5448 5444 5439 5435 5430 5426 5422 5419 5416 5414 5411 5408 5406
5542 5541 5541 5540 5539 5538 5537 5534 5532 5530 5527 5523 5520 5516 5512 5508 5503 5499 5494 5490 5485 5480 5475 5470 5465 5460 5455 5450 5445 5441 5436 5431 5427 5422 5418 5413 5409 5405 5402 5399 5397 5395 5393
5537 5536 5535 5535 5534 5532 5530 5528 5526 5523 5520 5516 5513 5508 5504 5501 5496 5491 5485 5481 5476 5471 5466 5461 5455 5451 5446 5441 5435 5429 5425 5420 5415 5410 5405 5401 5396 5391 5386 5381 5377 5375 5373
5531 5530 5529 5528 5527 5525 5523 5521 5518 5515 5512 5508 5504 5499 5495 5491 5486 5481 5476 5470 5465 5460 5455 5450 5445 5440 5434 5429 5423 5418 5413 5407 5402 5396 5391 5385 5379 5373 5368 5363 5359 5355 5351
5525 5524 5523 5521 5520 5518 5515 5513 5510 5506 5503 5500 5496 5491 5486 5481 5476 5471 5465 5459 5454 5449 5444 5439 5434 5428 5422 5417 5411 5405 5399 5393 5387 5381 5375 5369 5363 5358 5352 5347 5342 5339 5335
5519 5517 5516 5514 5512 5510 5507 5504 5501 5497 5494 5490 5485 5480 5475 5470 5465 5459 5454 5449 5443 5438 5432 5427 5421 5415 5409 5403 5397 5391 5385 5379 5372 5365 5359 5353 5347 5341 5335 5331 5326 5322 5318
5511 5509 5507 5505 5502 5500 5497 5494 5490 5487 5482 5478 5474 5468 5463 5458 5453 5448 5442 5436 5430 5424 5419 5413 5406 5400 5394 5388 5381 5375 5368 5362 5355 5349 5342 5336 5329 5324 5318 5313 5308 5305 5300
5503 5501 5498 5496 5492 5490 5487 5483 5479 5475 5470 5466 5461 5455 5451 5445 5440 5435 5429 5423 5416 5410 5404 5397 5392 5385 5379 5372 5365 5358 5351 5345 5338 5331 5324 5317 5311 5305 5299 5293 5289 5285 5282
5493 5490 5488 5485 5481 5478 5475 5471 5467 5462 5458 5453 5448 5443 5438 5432 5426 5421 5415 5408 5402 5396 5389 5383 5377 5370 5363 5356 5349 5341 5333 5326 5319 5312 5305 5298 5291 5285 5279 5273 5268 5263 5259
5482 5479 5477 5474 5470 5467 5463 5459 5454 5449 5445 5440 5434 5429 5424 5418 5412 5406 5400 5394 5387 5380 5374 5367 5360 5353 5346 5340 5332 5324 5316 5308 5300 5293 5286 5278 5270 5264 5257 5251 5244 5239 5234
5471 5468 5466 5462 5458 5454 5450 5446 5441 5436 5431 5426 5421 5415 5409 5403 5397 5391 5385 5378 5372 5364 5357 5350 5344 5337 5329 5321 5313 5304 5296 5288 5281 5272 5265 5256 5248 5240 5232 5226 5221 5215 5209
5459 5456 5453 5449 5446 5442 5437 5433 5428 5423 5417 5411 5406 5400 5394 5388 5382 5375 5369 5362 5355 5348 5341 5334 5327 5319 5311 5303 5294 5286 5277 5268 5259 5250 5242 5234 5225 5216 5208 5201 5196 5191 5185
5447 5444 5440 5436 5432 5427 5423 5418 5412 5407 5402 5396 5390 5385 5378 5372 5366 5360 5353 5346 5339 5332 5325 5317 5309 5301 5292 5283 5275 5267 5258 5249 5239 5229 5219 5211 5203 5196 5188 5181 5175 5169 5164